Regional Weather Roundup
Issued by NWS

Home | Current Version | Previous Version | Graphics & Text | Print | Product List | Glossary On
Versions: 1 2 3 4 5 6 7 8 9 10 11 12 13 14 15 16 17 18 19 20 21 22 23 24 25 26 27 28 29 30 31 32 33 34 35 36 37 38 39 40 41 42 43 44 45 46 47 48 49 50
000
ASUS45 KPSR 271400
RWRAZ

PRELIMINARY ARIZONA REGIONAL HOURLY WEATHER ROUNDUP
NATIONAL WEATHER SERVICE PHOENIX AZ
700 AM MST THU NOV 27 2014

NOTE: FAIR INDICATES FEW OR NO CLOUDS BELOW 12,000 FEET WITH NO
SIGNIFICANT WEATHER AND/OR OBSTRUCTIONS TO VISIBILITY.

AZZ001>003-036-271500-
NORTHWEST ARIZONA

CITY           SKY/WX    TMP DP  RH WIND       PRES   REMARKS
KINGMAN        PTCLDY    40  16  37 SE7       30.31R
$$

AZZ004>008-015-016-018-271500-
NORTH CENTRAL ARIZONA

CITY           SKY/WX    TMP DP  RH WIND       PRES   REMARKS
GRAND CANYON   PTCLDY    15   7  70 CALM      30.47R
PRESCOTT       PTCLDY    33  15  47 SW7       30.38S WCI  27
FLAGSTAFF      NOT AVBL
PAYSON         CLEAR     52  14  22 SE6       30.40R
PAGE           CLOUDY    35  16  45 CALM      30.44S
$$

AZZ009>014-017-271500-
NORTHEAST ARIZONA

CITY           SKY/WX    TMP DP  RH WIND       PRES   REMARKS
WINSLOW        NOT AVBL
SAINT JOHNS    MOCLDY    20  13  74 CALM      30.46R
WINDOW ROCK    MOCLDY    14   8  77 CALM      30.51
SHOW LOW       PTCLDY    25  12  58 S3        30.48R
$$

AZZ023-271500-
GREATER PHOENIX AREA

CITY           SKY/WX    TMP DP  RH WIND       PRES   REMARKS
PHOENIX        CLEAR     47  27  45 E9        30.19R
BUCKEYE          N/A     43  19  39 NW6       30.19S
GLENDALE       PTCLDY    43  30  61 CALM      30.22R
LUKE AFB       CLEAR     41  26  56 NE5       30.20R
DEER VALLEY    CLEAR     51  17  26 NE6       30.19R
SCOTTSDALE     CLEAR     46  28  49 CALM      30.22R
MESA-GATEWAY   CLEAR     43  19  39 E8        30.22R
CHANDLER       CLEAR     41  27  56 NE6       30.21R
$$

AZZ027-028-271500-
SOUTHWEST MARICOPA COUNTY AND PINAL COUNTY

CITY           SKY/WX    TMP DP  RH WIND       PRES   REMARKS
CASA GRANDE    PTCLDY    43  16  33 CALM      30.20R
$$

AZZ503-504-507>509-271500-
SOUTHEAST ARIZONA

CITY           SKY/WX    TMP DP  RH WIND       PRES   REMARKS
TUCSON         CLEAR     43  19  38 SE7       30.25R
DAVIS-MONTHAN  CLEAR     47  20  34 E1        30.23R
RYAN FIELD       N/A     43  21  42 CALM      30.24R
NOGALES        CLEAR     52  20  28 NE6       30.27R
SIERRA VISTA   PTCLDY    47  19  33 NE3       30.34R
SAFFORD        CLEAR     40  16  37 S15       30.34R WCI  32
$$

AZZ020-021-025-026-031-271500-
SOUTHWEST ARIZONA

CITY           SKY/WX    TMP DP  RH WIND       PRES   REMARKS
YUMA           CLEAR     57  20  23 N8        30.16R
$$

CAZ031-033-041-043-047-048-061-271500-
SOUTHERN CALIFORNIA

CITY           SKY/WX    TMP DP  RH WIND       PRES   REMARKS
DOWNTOWN L.A.  CLEAR     62  21  20 NE3       30.09R
L.A. AIRPORT   CLEAR     61  21  21 E3        30.09R
SAN DIEGO      CLEAR     56  30  37 CALM      30.09R
BURBANK        CLEAR     52  20  28 CALM      30.11R
ONTARIO        CLEAR     53  29  39 E3        30.13R
RIVERSIDE      CLEAR     56  25  30 NE7       30.13R
PALM SPRINGS   CLEAR     56  23  27 NW6       30.18R
EL CENTRO NAS  CLEAR     45  22  40 SW6       30.15R
IMPERIAL       CLEAR     47  28  47 W3        30.15R
BLYTHE         CLEAR     52  15  23 NE3       30.20R
$$

NVZ020-UTZ003-271500-
SOUTHERN NEVADA-UTAH

CITY           SKY/WX    TMP DP  RH WIND       PRES   REMARKS
LAS VEGAS      NOT AVBL
SALT LAKE CITY CLOUDY    46  26  45 SE15G23   30.28S
$$

NMZ009-TXZ055-271500-
NEW MEXICO-WEST TEXAS

CITY           SKY/WX    TMP DP  RH WIND       PRES   REMARKS
ALBUQUERQUE    PTCLDY    33  21  61 NW8       30.46R WCI  26
EL PASO        CLEAR     34  17  50 NE5       30.40R WCI  30
$$


........................KEY........................
SKY/WX - SKY CONDITION/WEATHER
TMP    - TEMPERATURE IN FAHRENHEIT
DP     - DEW POINT IN FAHRENHEIT
RH     - RELATIVE HUMIDITY IN PERCENT
WIND   - DIRECTION AND SPEED IN MILES PER HOUR (MPH)
VRB    - VARIABLE WIND DIRECTION
PRES   - MEAN SEA LEVEL PRESSURE IN INCHES OF MERCURY
         F - FALLING PRESSURE   R - RISING PRESSURE
         S - STEADY PRESSURE
VSB    - VISIBILITY IN MILES
HX     - HEAT INDEX IN FAHRENHEIT
WCI    - WIND CHILL INDEX IN FAHRENHEIT
TC     - TEMPERATURE IN CELSIUS WHICH IS ALSO KNOWN AS
         TEMPERATURE IN CENTIGRADE
AFB    - AIR FORCE BASE
         LUKE AFB IS LUKE AIR FORCE BASE
         DAVIS-MONTHAN IS DAVIS-MONTHAN AIR FORCE BASE
NAS    - NAVAL AIR STATION
         EL CENTRO NAS IS EL CENTRO NAVAL AIR STATION
N/A    - NOT AVAILABLE


USA.gov is the U.S. government's official web portal to all federal, state and local government web resources and services.